Mars Hill, North Carolina, United States (28754)
Lat: 35.83N, Lon: 82.55W
Wx Zone: NCZ048
Local Info
Past Weather Observations for Today

NOTE: This archive is for the closest National Weather Service station to Mars Hill. Information may differ from the station used for current weather conditions.

Click here for Long-term Archive

Time Weather Temperature Dewpoint Humidity Pressure Winds Precip Visibility
22:54
Clear
45°F / 7°C 36°F / 2°C 71% 30.15 in
(1021 mb)
NNW 17.3 mph
(NNW 28 kph)
- 10SM
21:54
Clear
46°F / 8°C 36°F / 2°C 66% 30.15 in
(1021 mb)
NNW 12.7 mph
(NNW 20 kph)
- 10SM
20:54
Clear
46°F / 8°C 36°F / 2°C 66% 30.15 in
(1021 mb)
NW 13.8 mph
(NW 22 kph)
- 10SM
19:54
Clear
46°F / 8°C 37°F / 3°C 71% 30.15 in
(1021 mb)
NNW 16.1 mph
(NNW 26 kph)
- 10SM
18:54
Clear
48°F / 9°C 37°F / 3°C 66% 30.15 in
(1021 mb)
NNW 19.6 mph
(NNW 32 kph)
- 10SM
17:54
Overcast
52°F / 11°C 37°F / 3°C 58% 30.15 in
(1021 mb)
NNW 17.3 mph
(NNW 28 kph)
- 10SM
16:54
Mostly Cloudy
54°F / 12°C 36°F / 2°C 51% 30.15 in
(1021 mb)
NNW 18.4 mph
(NNW 30 kph)
- 10SM
15:54
Clear
55°F / 13°C 36°F / 2°C 47% 30.12 in
(1020 mb)
NNW 19.6 mph
(NNW 32 kph)
- 10SM
14:54
Clear
55°F / 13°C 37°F / 3°C 51% 30.12 in
(1020 mb)
NNW 13.8 mph
(NNW 22 kph)
- 10SM
13:54
Clear
55°F / 13°C 37°F / 3°C 51% 30.12 in
(1020 mb)
NW 19.6 mph
(NW 32 kph)
- 10SM
12:54
Clear
55°F / 13°C 36°F / 2°C 47% 30.12 in
(1020 mb)
N 12.7 mph
(N 20 kph)
- 10SM
11:54
Clear
54°F / 12°C 36°F / 2°C 51% 30.15 in
(1021 mb)
N 15 mph
(N 24 kph)
- 10SM
10:54
Partly Cloudy
52°F / 11°C 36°F / 2°C 54% 30.15 in
(1021 mb)
NNW 17.3 mph
(NNW 28 kph)
- 10SM
09:54
Mostly Cloudy
50°F / 10°C 36°F / 2°C 58% 30.15 in
(1021 mb)
NNW 17.3 mph
(NNW 28 kph)
- 10SM
08:54
Mostly Cloudy
50°F / 10°C 36°F / 2°C 58% 30.15 in
(1021 mb)
N 17.3 mph
(N 28 kph)
- 10SM
07:54
Partly Cloudy
48°F / 9°C 36°F / 2°C 62% 30.12 in
(1020 mb)
NNW 11.5 mph
(NNW 19 kph)
- 10SM
06:54
Partly Cloudy
45°F / 7°C 36°F / 2°C 71% 30.09 in
(1019 mb)
NNW 8.1 mph
(NNW 13 kph)
- 10SM
05:54
Clear
45°F / 7°C 34°F / 1°C 66% 30.09 in
(1019 mb)
NW 12.7 mph
(NW 20 kph)
- 10SM
04:54
Mostly Cloudy
46°F / 8°C 34°F / 1°C 62% 30.06 in
(1018 mb)
NNW 11.5 mph
(NNW 19 kph)
- 10SM
03:54
Clear
45°F / 7°C 36°F / 2°C 71% 30.06 in
(1018 mb)
NNW 13.8 mph
(NNW 22 kph)
- 10SM
02:54
Clear
45°F / 7°C 36°F / 2°C 71% 30.04 in
(1017 mb)
N 10.4 mph
(N 17 kph)
- 10SM
01:54
Clear
45°F / 7°C 34°F / 1°C 66% 30.04 in
(1017 mb)
NNW 11.5 mph
(NNW 19 kph)
- 10SM
00:54
Mostly Cloudy
46°F / 8°C 34°F / 1°C 62% 30.06 in
(1018 mb)
NNW 6.9 mph
(NNW 11 kph)
- 10SM
Time Weather Temperature Dewpoint Humidity Pressure Winds Precip Visibility


Weather for websites

WeatherForYou.com, LLC is not responsible for any damages or problems caused by this service. Current weather conditions are obtained from the closest station including government and personal stations which may have varying degrees of accuracy. Weather forecasts are derived from the NOAA NDFD. Like all things, this site belongs to Jesus Christ... He just trusts me to maintain it. If you have any questions or comments email webmaster@weatherforyou.com

Copyright © 2014, WeatherForYou.com LLC. All rights reserved.